Simultaneous Nadir Overpasses (SNOs) Predictions

Prediction of SNOs between NOAA-19 and NPP Satellite Orbit:

Table of predicted SNOs for the next 14.0 days since TLE Epoch: 7/10/2020
Index Date (NOAA-19) Time (NOAA-19) Lat,Lon (NOAA-19) SZA (NOAA-19 ) Date (NPP) Time (NPP) Lat,Lon (NPP) SZA (NPP ) Distance(km) Time Diff (sec)
1 07/17/2020 01:04:18 -79.11, -49.40 119.97 07/17/2020 01:05:30 -79.15, -48.06 120.12 28.48 72
2 07/17/2020 01:55:09 79.22, 118.78 60.03 07/17/2020 01:56:17 79.21, 118.86 59.98 1.99 68
3 07/17/2020 02:46:15 -79.22, -73.95 119.97 07/17/2020 02:47:02 -79.23, -73.96 119.99 0.32 47
4 07/17/2020 03:37:09 79.24, 93.44 60.04 07/17/2020 03:37:47 79.21, 93.47 59.99 3.04 38
5 07/17/2020 04:28:15 -79.24, -99.30 119.96 07/17/2020 04:28:32 -79.23, -99.35 119.98 1.86 17
6 07/17/2020 05:19:10 79.22, 67.82 60.05 07/17/2020 05:19:18 79.25, 67.82 60.07 2.61 8
7 07/17/2020 06:10:16 -79.23,-124.92 119.95 07/17/2020 06:10:02 -79.23,-124.74 119.96 3.66 14
8 07/17/2020 07:01:10 79.24, 42.47 60.06 07/17/2020 07:00:48 79.25, 42.43 60.08 1.28 22
9 07/17/2020 07:52:16 -79.24,-150.26 119.94 07/17/2020 07:51:32 -79.23,-150.13 119.95 3.15 44
10 07/17/2020 08:43:10 79.26, 17.13 60.07 07/17/2020 08:42:18 79.25, 17.04 60.10 1.97 52
11 07/17/2020 09:34:16 -79.26,-175.61 119.93 07/17/2020 09:33:03 -79.27,-175.78 119.87 3.52 73
